SCP
0 0 0 0 0 0 0 0 0 0 0 0 0 0 0 0 0 0 0 0 0 0 0 0 0 0 -0 0 0 0 0 0 0 0 0 0 0 0 0 0 0 -0 0 0 0 0 0
0 0 0 0 0 0 0 0 0 0 0 0 0 0 -0 -0 0 0 0 0 -0 0 0 0 -0 0 0 0 0 0 0 0 0 0 0 0 0 0 0 0 -0 -0 -0 0 0 0 0
0 0 0 0 0 0 0 0 0 0 0 0 0 -0 -0 -0 0 -0 0 0 0 0 0 -0 -0 -0 0 -0 0 0 0 0 0 0 0 0 0 0 0 0 0 0 0 0 0 -0 -0
0 0 0 0 0 0 0 0 0 0 0 0 0 -0 0 -0 0 -0 0 0 0 0 0 -0 -0 -0 0 0 0 0 0 0 0 0 0 0 0 0 0 0 0 0 0 0 0 0 0
0 0 0 0 0 0 0 0 0 0 0 0 0 -0 -0 -0 0 -0 -0 0 0 0 0 -0 0 0 0 0 0 0 0 0 0 0 0 0 0 0 0 0 0 0 0 0 0 0 0
0 0 0 0 0 0 0 0 0 0 0 0 0 -0 -0 -0 -0 -0 0 0 0 0 0 0 0 0 0 0 0 0 0 0 0 0 0 0 0 0 0 0 0 0 0 0 0 0 0
0 0 0 0 0 0 0 0 0 0 0 0 0 0 -0 -0 -0 0 -0 0 0 0 0 0 0 0 0 0 0 0 0 0 0 0 0 0 0 0 0 0 0 0 0 0 0 0 0
0 0 0 0 0 0 0 0 0 0 0 0 0 0 0 -0 -0 0 -0 0 0 0 0 0 0 0 0 0 0 0 0 0 0 0 0 0 0 0 0 0 0 0 0 0 0 0 0
0 0 0 0 0 0 0 0 0 0 0 0 0 -0 0 -0 0 0 0 0 0 0 0 0 0 0 0 0 0 0 -0 0 0 0 0 0 0 0 0 0 0 0 0 0 0 0 0
0 0 0 0 0 0 0 0 0 0 0 0 0 -0 0 -0 0 0 0 0 0 0 0 0 0 0 0 0 0 0 0 0 0 0 0 0 0 0 0 0 0 0 0 0 0 0 0
0 0 0 0 0 0 0 0 0 0 0 0 0 0 -0 0 0 0 0 0 -0 0 0 0 0 0 0 0 0 0 0 0 0 0 0 0 0 0 0 0 0 0 0 0 0 0 0
0 0 0 0 0 0 0 0 0 0 0 -0 -0 0 0 0 0 0 0 -0 0 0 0 0 0 0 0 0 0 0 0 0 0 0 0 0 0 0 0 0 0 0 0 0 0 0 0
0 0 0 0 0 0 0 0 0 0 0 -0 -0 -0 0 0 0 -0 0 0 0 0 0 0 0 0 0 0 0 0 0 0 0 0 0 0 0 0 0 0 0 0 0 0 0 0 0
0 0 0 0 0 0 0 0 0 0 0 -0 -0 -0 0 -0 -0 0 0 0 0 0 0 0 0 0 0 0 0 0 0 0 0 0 0 0 0 0 0 0 0 0 0 0 0 0 0
0 0 0 0 0 0 0 0 0 0 0 -0 -0 0 0 -0 -0 0 0 0 0 0 0 0 0 0 0 0 0 0 0 0 0 0 0 0 0 0 0 0 0 0 0 0 0 0 0
0 0 0 0 0 0 0 0 0 -0 0 -0 0 0 0 0 -0 0 0 0 0 0 0 0 0 0 0 0 0 0 0 0 0 0 0 0 0 0 0 0 0 0 0 0 0 0 0
0 0 0 0 0 0 0 0 0 -0 -0 -0 0 0 0 0 0 0 -0 0 0 0 0 0 0 0 0 0 0 0 0 0 0 0 0 0 0 0 0 0 0 0 0 0 0 0 0
0 0 0 0 0 0 0 0 0 0 0 0 0 0 0 0 0 0 0 0 0 0 0 0 0 0 0 0 0 0 0 0 0 0 0 0 0 0 0 0 0 0 0 0 0 0 0
0 0 0 0 0 0 0 0 0 0 0 0 0 0 0 0 0 0 0 -0 0 0 0 0 0 0 0 0 0 0 0 0 0 0 0 0 0 0 0 0 0 0 0 0 0 0 0
0 0 0 0 0 0 0 0 0 0 0 0 0 0 0 0 0 -0 -0 0 0 -0 -0 0 0 0 0 0 0 0 0 0 0 0 0 0 0 0 0 0 0 0 0 0 0 0 0
0 0 0 0 0 0 0 0 0 0 0 0 0 0 0 0 0 0 0 0 0 0 0 0 0 0 0 0 0 0 0 0 0 0 0 0 0 0 0 0 0 0 0 0 0 0 0
0 0 0 0 0 0 0 0 0 0 0 0 0 0 0 0 0 0 0 -0 0 -0 0 0 0 0 0 0 0 0 0 0 0 0 0 0 0 0 0 0 0 0 0 0 0 0 0
0 0 0 0 0 0 0 0 0 0 0 0 0 0 0 0 0 0 0 0 -0 0 0 0 0 0 0 0 0 0 0 0 0 0 0 0 0 0 0 0 0 0 0 0 0 0 0
0 0 0 0 0 0 0 0 0 0 0 0 0 0 0 0 0 0 0 0 0 0 0 0 0 0 0 0 0 0 0 0 0 0 0 0 0 0 0 0 0 0 0 0 0 0 0
0 0 0 0 0 0 0 0 0 0 0 0 0 0 0 0 0 0 0 0 0 0 0 0 0 0 0 0 0 0 0 0 0 0 0 0 0 0 0 0 0 0 0 0 0 0 0
0 0 0 0 0 0 0 0 0 0 0 0 0 0 0 0 0 0 0 0 0 0 0 0 0 0 0 0 0 0 0 0 0 0 0 0 0 0 0 0 0 0 0 0 0 0 0
0 0 0 0 0 0 0 0 0 0 0 0 0 0 0 0 0 0 0 0 0 0 0 0 0 0 0 0 0 0 0 0 0 0 0 0 0 0 0 0 0 0 0 0 0 0 0
0 0 0 0 0 0 0 0 0 0 0 0 0 0 0 0 0 0 0 0 0 0 0 0 0 0 0 0 0 0 0 0 0 0 0 0 0 0 0 0 0 0 0 0 0 0 0
0 0 0 0 0 0 0 0 0 0 0 0 0 0 0 0 0 0 0 0 0 0 0 0 0 0 0 0 0 0 0 0 0 0 0 0 0 0 0 0 0 0 0 0 0 0 0
Wind_Speed_500mb
41 42 44 43 43 46 45 43 46 45 41 40 38 38 35 32 30 27 30 29 29 27 20 17 11 14 16 16 39 7 5 22 70 69 60 46 58 43 32 30 24 37 39 33 39 66 37
39 39 41 42 43 42 41 42 46 45 40 39 38 38 36 33 30 29 32 32 31 29 22 16 14 13 15 15 19 23 18 24 76 73 71 58 44 36 35 36 46 32 42 44 46 38 27
35 37 40 40 42 43 42 46 45 42 39 38 38 38 36 33 28 29 33 34 36 30 22 15 18 14 21 45 14 12 14 29 72 74 80 59 37 26 29 13 40 21 14 22 33 37 19
29 34 36 40 43 38 41 44 43 41 38 37 38 39 39 35 29 29 35 36 38 27 20 15 16 15 22 12 22 13 10 30 72 56 55 43 27 24 10 15 12 23 10 20 14 27 19
35 30 34 36 37 38 43 44 44 44 43 40 39 39 40 36 33 30 36 39 29 19 16 14 16 15 22 11 20 17 15 33 50 33 36 35 25 23 10 13 8 5 17 17 11 32 9
39 39 39 38 35 39 42 44 44 44 45 45 41 39 39 37 34 32 33 29 9 8 14 14 9 10 17 3 15 20 23 42 43 43 29 27 15 13 7 13 24 24 15 9 18 9 11
44 42 40 40 41 42 44 45 45 47 48 47 44 41 40 37 34 36 32 8 5 7 24 26 16 9 5 9 17 31 30 41 31 23 16 23 19 32 38 22 10 15 11 17 7 8 3
48 49 48 45 45 44 46 47 48 51 50 48 45 43 41 37 43 38 30 18 21 4 15 44 29 22 29 8 11 37 56 20 33 29 14 18 25 18 17 15 9 7 7 10 4 5 10
51 52 53 51 50 49 49 50 51 50 52 48 47 47 44 48 43 37 35 37 18 8 10 7 37 32 22 20 18 42 49 26 29 23 22 25 10 20 14 12 14 8 13 10 11 2 5
54 55 55 54 52 51 51 52 53 53 54 52 50 46 54 40 22 11 7 3 40 10 5 11 13 14 21 19 11 43 47 20 8 19 17 14 11 24 15 15 14 11 20 20 17 6 10
54 54 54 53 53 51 52 52 53 57 57 54 50 55 44 29 16 9 3 19 25 19 6 16 9 7 29 15 34 23 48 18 19 15 11 10 17 20 13 18 21 11 10 17 10 14 8
51 52 52 52 52 51 53 55 54 58 65 62 52 50 38 18 12 9 21 16 34 7 5 8 13 15 18 9 8 19 24 19 11 11 3 10 3 6 6 11 20 19 10 8 6 6 12
51 51 51 51 52 54 54 58 54 59 62 62 59 39 22 7 12 21 18 30 7 6 7 13 13 18 25 14 13 18 27 22 15 16 18 5 5 1 5 9 6 8 10 7 9 10 10
50 50 50 52 52 54 56 56 54 61 63 60 51 22 6 14 19 11 40 7 8 3 6 14 13 26 20 21 8 15 30 23 6 11 11 17 12 4 5 8 10 8 8 8 10 8 5
53 51 49 51 48 48 55 55 56 62 64 62 37 9 8 15 20 28 11 6 5 5 12 8 5 24 16 16 11 11 22 29 15 12 9 13 9 2 7 5 4 10 9 4 7 3 7
50 53 52 47 44 45 51 51 49 59 62 55 36 5 9 17 22 20 7 8 6 2 7 8 18 22 18 11 13 8 14 8 13 5 2 10 10 3 5 1 23 0 16 7 3 8 14
50 50 53 51 46 45 46 52 46 59 63 47 15 2 5 25 33 10 9 8 3 4 15 8 3 8 23 16 9 5 3 5 4 7 4 8 4 6 5 8 6 8 7 7 3 4 8
52 50 50 56 50 52 44 52 48 55 60 45 12 1 8 32 7 7 9 7 6 13 29 13 10 9 8 11 11 9 13 3 4 10 11 3 6 7 5 7 8 2 5 7 8 10 6
52 51 52 56 49 52 47 43 46 50 54 55 28 6 12 24 7 6 5 9 14 8 6 15 14 5 1 7 12 4 9 6 2 6 12 12 4 10 7 6 3 2 5 7 11 3 14
55 50 52 52 43 44 40 42 45 50 45 36 11 3 2 16 4 12 12 13 13 21 4 7 5 6 8 8 12 11 11 10 6 13 20 10 5 3 10 7 7 8 12 12 7 6 9
58 47 43 43 39 40 39 43 50 46 42 21 6 4 4 4 4 5 4 5 9 7 4 8 7 7 11 7 7 9 8 10 14 8 9 5 6 4 9 9 5 6 13 18 21 21 16
54 44 40 41 36 40 39 48 45 48 37 12 9 8 13 10 9 4 10 13 7 2 6 3 12 8 7 10 4 14 12 5 5 7 6 5 7 3 3 5 6 16 23 25 27 29 32
52 48 38 35 36 37 41 45 41 47 41 16 19 13 5 10 6 3 4 3 21 12 14 10 24 13 22 11 19 24 16 13 12 10 6 5 10 5 2 4 9 20 22 28 17 18 17
51 50 41 32 34 34 36 35 33 37 36 23 21 14 7 5 4 4 10 3 12 1 14 8 15 10 8 25 29 22 26 21 16 16 7 13 11 4 5 5 8 6 3 5 14 15 22
49 48 47 36 29 28 30 31 31 30 32 24 15 16 7 6 10 5 15 14 20 26 13 16 13 14 24 11 6 7 5 4 6 11 5 2 9 6 5 10 15 5 2 6 9 9 10
44 44 44 43 36 27 28 28 32 33 27 23 10 18 8 8 4 9 5 5 3 7 6 10 16 17 7 5 4 7 8 7 9 7 8 9 5 6 4 5 7 4 6 5 7 14 15
46 47 46 45 43 36 32 30 31 28 18 20 15 13 10 7 6 10 5 4 4 7 8 7 5 6 6 4 3 4 5 1 13 15 12 9 5 15 11 8 10 4 5 8 9 5 13
42 45 43 42 40 39 31 29 30 22 6 15 16 11 11 8 13 8 9 5 5 4 5 10 8 3 4 4 5 5 5 5 5 9 10 13 14 10 11 10 11 8 9 7 7 11 15
43 41 41 41 41 34 32 29 26 16 1 10 13 16 14 10 9 10 6 7 13 11 10 8 5 6 6 6 3 5 5 5 6 8 3 8 5 7 12 3 3 4 2 13 15 27 32
Wind_Direction_500mb
340 344 344 345 343 340 342 342 339 333 328 324 322 319 315 310 312 310 307 312 308 305 304 297 284 284 264 246 247 309 220 184 187 190 182 173 169 174 181 180 160 227 233 253 264 269 269
339 343 341 341 337 337 339 335 332 331 328 329 328 324 320 313 309 309 308 306 304 297 285 283 262 258 231 245 268 267 260 208 192 184 176 173 178 180 175 176 199 212 219 205 250 254 266
342 343 342 338 337 338 336 332 329 328 329 329 331 329 326 321 311 305 304 304 302 289 269 263 259 242 256 249 272 285 233 196 186 186 178 179 175 173 156 139 203 197 183 218 225 250 246
356 348 340 336 334 335 330 326 328 334 335 332 330 329 328 324 315 302 303 305 299 278 250 244 244 241 256 274 244 242 207 185 175 184 187 183 180 177 180 154 121 184 213 219 196 206 234
349 336 331 337 342 333 328 327 333 336 333 332 333 329 326 323 315 306 305 310 296 259 223 217 205 234 266 244 218 211 199 172 156 157 180 183 175 188 179 167 142 169 192 205 210 196 147
356 351 350 347 339 328 327 333 335 334 333 331 330 327 323 321 317 311 309 315 283 190 156 171 215 267 252 214 183 176 155 165 149 141 129 173 183 190 181 179 193 180 201 210 197 155 171
357 354 352 347 341 335 333 333 334 334 333 331 327 322 320 317 315 309 303 274 178 185 200 200 202 227 109 102 147 161 151 148 154 160 164 174 186 197 194 194 194 174 189 198 184 158 235
352 351 348 347 344 342 339 336 336 337 336 332 327 321 318 313 308 301 282 232 223 226 272 236 231 251 250 271 144 155 151 146 156 174 158 157 201 195 166 172 158 164 203 231 259 249 210
340 339 339 341 342 342 339 339 338 339 337 334 328 322 319 312 306 290 268 259 222 228 256 224 220 235 251 177 166 168 173 141 162 162 177 171 189 160 157 157 176 192 220 234 247 74 222
331 332 331 334 336 336 336 336 337 336 337 334 329 325 321 315 306 292 288 132 194 210 272 176 202 224 186 160 146 174 180 156 150 158 157 180 125 161 158 180 183 210 217 231 237 202 251
326 329 330 329 329 331 332 332 335 333 335 334 329 328 322 309 274 274 128 180 195 193 176 146 157 180 161 177 139 174 180 180 160 147 182 153 173 162 180 198 183 221 172 210 226 197 186
328 328 328 329 329 329 330 328 331 333 333 334 330 326 314 300 258 133 141 196 151 230 166 167 140 158 162 174 116 137 166 165 130 131 95 136 185 173 153 148 184 147 127 93 108 156 233
324 322 323 326 327 328 331 330 332 332 332 333 331 320 290 211 142 151 185 153 176 224 307 149 162 160 171 163 126 145 170 169 166 163 178 159 179 38 162 157 147 165 166 189 215 217 250
329 323 321 322 325 328 333 329 334 334 335 334 335 317 237 170 196 161 160 215 246 135 122 274 160 162 177 164 135 151 162 179 134 150 161 188 186 214 134 215 195 187 209 211 220 220 237
340 336 330 324 325 327 328 330 337 335 336 336 338 304 198 177 179 169 177 230 222 341 120 309 132 157 142 161 137 147 179 183 175 176 162 170 167 77 63 131 206 153 198 59 123 74 249
341 341 340 336 333 329 331 334 338 334 337 340 335 306 179 163 160 169 230 262 345 96 47 254 186 185 183 171 143 135 166 169 163 200 265 164 140 86 123 242 51 352 133 155 147 220 243
343 345 343 339 332 334 342 336 341 339 339 345 336 84 217 169 157 224 249 242 354 90 206 282 333 111 160 190 129 144 273 17 135 112 123 132 171 136 210 22 149 147 163 73 95 237 249
344 344 348 345 345 345 342 338 345 344 341 350 355 178 170 162 167 175 231 122 20 271 252 272 333 41 123 151 134 133 145 139 160 142 148 82 112 126 94 7 267 38 150 180 208 200 225
346 346 352 350 348 348 344 344 348 349 347 343 330 294 185 182 206 138 232 149 254 248 274 161 204 207 83 112 105 109 111 22 61 116 150 171 105 143 157 164 98 152 117 108 99 72 219
349 350 352 350 354 354 346 346 349 347 345 342 327 307 129 208 150 140 216 217 215 199 148 152 163 95 111 80 50 132 118 39 42 92 75 97 103 204 243 84 130 172 168 160 150 186 238
351 358 355 354 351 347 341 351 346 348 347 348 349 17 45 274 123 147 177 312 317 165 112 46 81 88 123 107 83 104 113 129 68 35 59 69 112 116 112 123 163 219 221 214 233 244 241
352 354 351 355 344 344 349 346 353 351 356 16 16 358 342 281 297 198 160 218 181 194 345 80 125 89 65 124 152 171 140 133 139 68 73 24 111 110 116 143 238 267 254 245 243 250 254
349 350 346 347 347 338 345 343 349 355 5 20 2 341 321 302 335 257 184 227 151 176 36 51 126 103 84 79 87 89 78 90 128 136 114 99 138 132 214 55 335 277 265 232 233 232 249
348 350 341 337 341 346 342 343 347 350 1 5 356 346 330 300 348 9 316 106 136 126 135 66 64 94 120 120 95 75 60 66 73 59 71 132 120 101 134 156 237 62 177 336 224 253 225
345 344 345 330 327 327 336 341 340 342 349 359 337 351 327 299 329 343 19 96 90 70 76 77 46 98 140 115 97 106 82 124 52 39 47 66 129 129 204 209 317 258 110 173 208 276 270
342 341 340 341 322 314 318 329 322 329 332 349 321 345 327 305 32 315 329 21 89 96 69 84 76 115 124 74 115 182 183 153 152 124 69 101 61 170 156 225 245 111 127 144 172 258 18
340 341 342 339 341 325 310 323 328 321 327 335 313 330 328 291 325 8 35 26 63 81 91 117 115 89 72 104 123 167 169 167 162 166 155 158 149 209 200 245 270 187 171 176 243 27 338
339 341 340 343 340 338 325 316 330 319 317 334 322 301 345 299 305 19 43 60 75 66 131 149 128 80 92 121 185 164 182 149 160 136 165 164 164 186 200 222 248 156 160 234 19 324 300
336 336 337 339 336 338 326 326 330 318 345 329 299 299 303 272 278 320 17 85 71 65 118 122 88 121 135 113 184 142 149 171 162 176 159 187 208 183 203 223 112 178 18 303 314 310 298
Wind_Speed_850mb
41 42 44 43 43 46 45 43 46 45 41 40 38 38 35 32 30 27 30 29 29 27 20 17 11 14 16 16 39 7 5 22 70 69 60 46 58 43 32 30 24 37 39 33 39 66 37
39 39 41 42 43 42 41 42 46 45 40 39 38 38 36 33 30 29 32 32 31 29 22 16 14 13 15 15 19 23 18 24 76 73 71 58 44 36 35 36 46 32 42 44 46 38 27
35 37 40 40 42 43 42 46 45 42 39 38 38 38 36 33 28 29 33 34 36 30 22 15 18 14 21 45 14 12 14 29 72 74 80 59 37 26 29 13 40 21 14 22 33 37 19
29 34 36 40 43 38 41 44 43 41 38 37 38 39 39 35 29 29 35 36 38 27 20 15 16 15 22 12 22 13 10 30 72 56 55 43 27 24 10 15 12 23 10 20 14 27 19
35 30 34 36 37 38 43 44 44 44 43 40 39 39 40 36 33 30 36 39 29 19 16 14 16 15 22 11 20 17 15 33 50 33 36 35 25 23 10 13 8 5 17 17 11 32 9
39 39 39 38 35 39 42 44 44 44 45 45 41 39 39 37 34 32 33 29 9 8 14 14 9 10 17 3 15 20 23 42 43 43 29 27 15 13 7 13 24 24 15 9 18 9 11
44 42 40 40 41 42 44 45 45 47 48 47 44 41 40 37 34 36 32 8 5 7 24 26 16 9 5 9 17 31 30 41 31 23 16 23 19 32 38 22 10 15 11 17 7 8 3
48 49 48 45 45 44 46 47 48 51 50 48 45 43 41 37 43 38 30 18 21 4 15 44 29 22 29 8 11 37 56 20 33 29 14 18 25 18 17 15 9 7 7 10 4 5 10
51 52 53 51 50 49 49 50 51 50 52 48 47 47 44 48 43 37 35 37 18 8 10 7 37 32 22 20 18 42 49 26 29 23 22 25 10 20 14 12 14 8 13 10 11 2 5
54 55 55 54 52 51 51 52 53 53 54 52 50 46 54 40 22 11 7 3 40 10 5 11 13 14 21 19 11 43 47 20 8 19 17 14 11 24 15 15 14 11 20 20 17 6 10
54 54 54 53 53 51 52 52 53 57 57 54 50 55 44 29 16 9 3 19 25 19 6 16 9 7 29 15 34 23 48 18 19 15 11 10 17 20 13 18 21 11 10 17 10 14 8
51 52 52 52 52 51 53 55 54 58 65 62 52 50 38 18 12 9 21 16 34 7 5 8 13 15 18 9 8 19 24 19 11 11 3 10 3 6 6 11 20 19 10 8 6 6 12
51 51 51 51 52 54 54 58 54 59 62 62 59 39 22 7 12 21 18 30 7 6 7 13 13 18 25 14 13 18 27 22 15 16 18 5 5 1 5 9 6 8 10 7 9 10 10
50 50 50 52 52 54 56 56 54 61 63 60 51 22 6 14 19 11 40 7 8 3 6 14 13 26 20 21 8 15 30 23 6 11 11 17 12 4 5 8 10 8 8 8 10 8 5
53 51 49 51 48 48 55 55 56 62 64 62 37 9 8 15 20 28 11 6 5 5 12 8 5 24 16 16 11 11 22 29 15 12 9 13 9 2 7 5 4 10 9 4 7 3 7
50 53 52 47 44 45 51 51 49 59 62 55 36 5 9 17 22 20 7 8 6 2 7 8 18 22 18 11 13 8 14 8 13 5 2 10 10 3 5 1 23 0 16 7 3 8 14
50 50 53 51 46 45 46 52 46 59 63 47 15 2 5 25 33 10 9 8 3 4 15 8 3 8 23 16 9 5 3 5 4 7 4 8 4 6 5 8 6 8 7 7 3 4 8
52 50 50 56 50 52 44 52 48 55 60 45 12 1 8 32 7 7 9 7 6 13 29 13 10 9 8 11 11 9 13 3 4 10 11 3 6 7 5 7 8 2 5 7 8 10 6
52 51 52 56 49 52 47 43 46 50 54 55 28 6 12 24 7 6 5 9 14 8 6 15 14 5 1 7 12 4 9 6 2 6 12 12 4 10 7 6 3 2 5 7 11 3 14
55 50 52 52 43 44 40 42 45 50 45 36 11 3 2 16 4 12 12 13 13 21 4 7 5 6 8 8 12 11 11 10 6 13 20 10 5 3 10 7 7 8 12 12 7 6 9
58 47 43 43 39 40 39 43 50 46 42 21 6 4 4 4 4 5 4 5 9 7 4 8 7 7 11 7 7 9 8 10 14 8 9 5 6 4 9 9 5 6 13 18 21 21 16
54 44 40 41 36 40 39 48 45 48 37 12 9 8 13 10 9 4 10 13 7 2 6 3 12 8 7 10 4 14 12 5 5 7 6 5 7 3 3 5 6 16 23 25 27 29 32
52 48 38 35 36 37 41 45 41 47 41 16 19 13 5 10 6 3 4 3 21 12 14 10 24 13 22 11 19 24 16 13 12 10 6 5 10 5 2 4 9 20 22 28 17 18 17
51 50 41 32 34 34 36 35 33 37 36 23 21 14 7 5 4 4 10 3 12 1 14 8 15 10 8 25 29 22 26 21 16 16 7 13 11 4 5 5 8 6 3 5 14 15 22
49 48 47 36 29 28 30 31 31 30 32 24 15 16 7 6 10 5 15 14 20 26 13 16 13 14 24 11 6 7 5 4 6 11 5 2 9 6 5 10 15 5 2 6 9 9 10
44 44 44 43 36 27 28 28 32 33 27 23 10 18 8 8 4 9 5 5 3 7 6 10 16 17 7 5 4 7 8 7 9 7 8 9 5 6 4 5 7 4 6 5 7 14 15
46 47 46 45 43 36 32 30 31 28 18 20 15 13 10 7 6 10 5 4 4 7 8 7 5 6 6 4 3 4 5 1 13 15 12 9 5 15 11 8 10 4 5 8 9 5 13
42 45 43 42 40 39 31 29 30 22 6 15 16 11 11 8 13 8 9 5 5 4 5 10 8 3 4 4 5 5 5 5 5 9 10 13 14 10 11 10 11 8 9 7 7 11 15
43 41 41 41 41 34 32 29 26 16 1 10 13 16 14 10 9 10 6 7 13 11 10 8 5 6 6 6 3 5 5 5 6 8 3 8 5 7 12 3 3 4 2 13 15 27 32
Wind_Direction_850mb
340 344 344 345 343 340 342 342 339 333 328 324 322 319 315 310 312 310 307 312 308 305 304 297 284 284 264 246 247 309 220 184 187 190 182 173 169 174 181 180 160 227 233 253 264 269 269
339 343 341 341 337 337 339 335 332 331 328 329 328 324 320 313 309 309 308 306 304 297 285 283 262 258 231 245 268 267 260 208 192 184 176 173 178 180 175 176 199 212 219 205 250 254 266
342 343 342 338 337 338 336 332 329 328 329 329 331 329 326 321 311 305 304 304 302 289 269 263 259 242 256 249 272 285 233 196 186 186 178 179 175 173 156 139 203 197 183 218 225 250 246
356 348 340 336 334 335 330 326 328 334 335 332 330 329 328 324 315 302 303 305 299 278 250 244 244 241 256 274 244 242 207 185 175 184 187 183 180 177 180 154 121 184 213 219 196 206 234
349 336 331 337 342 333 328 327 333 336 333 332 333 329 326 323 315 306 305 310 296 259 223 217 205 234 266 244 218 211 199 172 156 157 180 183 175 188 179 167 142 169 192 205 210 196 147
356 351 350 347 339 328 327 333 335 334 333 331 330 327 323 321 317 311 309 315 283 190 156 171 215 267 252 214 183 176 155 165 149 141 129 173 183 190 181 179 193 180 201 210 197 155 171
357 354 352 347 341 335 333 333 334 334 333 331 327 322 320 317 315 309 303 274 178 185 200 200 202 227 109 102 147 161 151 148 154 160 164 174 186 197 194 194 194 174 189 198 184 158 235
352 351 348 347 344 342 339 336 336 337 336 332 327 321 318 313 308 301 282 232 223 226 272 236 231 251 250 271 144 155 151 146 156 174 158 157 201 195 166 172 158 164 203 231 259 249 210
340 339 339 341 342 342 339 339 338 339 337 334 328 322 319 312 306 290 268 259 222 228 256 224 220 235 251 177 166 168 173 141 162 162 177 171 189 160 157 157 176 192 220 234 247 74 222
331 332 331 334 336 336 336 336 337 336 337 334 329 325 321 315 306 292 288 132 194 210 272 176 202 224 186 160 146 174 180 156 150 158 157 180 125 161 158 180 183 210 217 231 237 202 251
326 329 330 329 329 331 332 332 335 333 335 334 329 328 322 309 274 274 128 180 195 193 176 146 157 180 161 177 139 174 180 180 160 147 182 153 173 162 180 198 183 221 172 210 226 197 186
328 328 328 329 329 329 330 328 331 333 333 334 330 326 314 300 258 133 141 196 151 230 166 167 140 158 162 174 116 137 166 165 130 131 95 136 185 173 153 148 184 147 127 93 108 156 233
324 322 323 326 327 328 331 330 332 332 332 333 331 320 290 211 142 151 185 153 176 224 307 149 162 160 171 163 126 145 170 169 166 163 178 159 179 38 162 157 147 165 166 189 215 217 250
329 323 321 322 325 328 333 329 334 334 335 334 335 317 237 170 196 161 160 215 246 135 122 274 160 162 177 164 135 151 162 179 134 150 161 188 186 214 134 215 195 187 209 211 220 220 237
340 336 330 324 325 327 328 330 337 335 336 336 338 304 198 177 179 169 177 230 222 341 120 309 132 157 142 161 137 147 179 183 175 176 162 170 167 77 63 131 206 153 198 59 123 74 249
341 341 340 336 333 329 331 334 338 334 337 340 335 306 179 163 160 169 230 262 345 96 47 254 186 185 183 171 143 135 166 169 163 200 265 164 140 86 123 242 51 352 133 155 147 220 243
343 345 343 339 332 334 342 336 341 339 339 345 336 84 217 169 157 224 249 242 354 90 206 282 333 111 160 190 129 144 273 17 135 112 123 132 171 136 210 22 149 147 163 73 95 237 249
344 344 348 345 345 345 342 338 345 344 341 350 355 178 170 162 167 175 231 122 20 271 252 272 333 41 123 151 134 133 145 139 160 142 148 82 112 126 94 7 267 38 150 180 208 200 225
346 346 352 350 348 348 344 344 348 349 347 343 330 294 185 182 206 138 232 149 254 248 274 161 204 207 83 112 105 109 111 22 61 116 150 171 105 143 157 164 98 152 117 108 99 72 219
349 350 352 350 354 354 346 346 349 347 345 342 327 307 129 208 150 140 216 217 215 199 148 152 163 95 111 80 50 132 118 39 42 92 75 97 103 204 243 84 130 172 168 160 150 186 238
351 358 355 354 351 347 341 351 346 348 347 348 349 17 45 274 123 147 177 312 317 165 112 46 81 88 123 107 83 104 113 129 68 35 59 69 112 116 112 123 163 219 221 214 233 244 241
352 354 351 355 344 344 349 346 353 351 356 16 16 358 342 281 297 198 160 218 181 194 345 80 125 89 65 124 152 171 140 133 139 68 73 24 111 110 116 143 238 267 254 245 243 250 254
349 350 346 347 347 338 345 343 349 355 5 20 2 341 321 302 335 257 184 227 151 176 36 51 126 103 84 79 87 89 78 90 128 136 114 99 138 132 214 55 335 277 265 232 233 232 249
348 350 341 337 341 346 342 343 347 350 1 5 356 346 330 300 348 9 316 106 136 126 135 66 64 94 120 120 95 75 60 66 73 59 71 132 120 101 134 156 237 62 177 336 224 253 225
345 344 345 330 327 327 336 341 340 342 349 359 337 351 327 299 329 343 19 96 90 70 76 77 46 98 140 115 97 106 82 124 52 39 47 66 129 129 204 209 317 258 110 173 208 276 270
342 341 340 341 322 314 318 329 322 329 332 349 321 345 327 305 32 315 329 21 89 96 69 84 76 115 124 74 115 182 183 153 152 124 69 101 61 170 156 225 245 111 127 144 172 258 18
340 341 342 339 341 325 310 323 328 321 327 335 313 330 328 291 325 8 35 26 63 81 91 117 115 89 72 104 123 167 169 167 162 166 155 158 149 209 200 245 270 187 171 176 243 27 338
339 341 340 343 340 338 325 316 330 319 317 334 322 301 345 299 305 19 43 60 75 66 131 149 128 80 92 121 185 164 182 149 160 136 165 164 164 186 200 222 248 156 160 234 19 324 300
336 336 337 339 336 338 326 326 330 318 345 329 299 299 303 272 278 320 17 85 71 65 118 122 88 121 135 113 184 142 149 171 162 176 159 187 208 183 203 223 112 178 18 303 314 310 298